EW4330 Weather Reports


Display with metric or nautical units.
time (UTC)temp
F
wind
direction
speed
MPH
gust
MPH
rain 1hr
in
rain 24hr
in
rain mn
in
humidity
%
barometer
mb
20260507220006 60 244 2.0 5.0 0.00 0.24 0.00 65 1013.0
20260507215507 60 241 3.0 5.0 0.00 0.24 0.21 65 1013.0
20260507215009 60 235 1.0 3.0 0.00 0.25 0.21 65 1013.0
20260507214508 60 276 2.0 3.0 0.00 0.25 0.21 65 1013.0
20260507214007 60 247 1.0 3.0 0.00 0.25 0.21 65 1012.0
20260507213507 60 230 2.0 3.0 0.00 0.25 0.21 64 1012.0
20260507213006 60 0 1.0 3.0 0.00 0.26 0.21 64 1012.0
20260507212508 60 210 1.0 2.0 0.00 0.26 0.21 64 1012.0
20260507212007 60 255 1.0 3.0 0.00 0.27 0.21 63 1012.0
20260507211506 60 231 2.0 3.0 0.00 0.27 0.21 63 1012.0
20260507211007 60 202 2.0 3.0 0.00 0.27 0.21 62 1012.0
20260507205507 60 239 2.0 3.0 0.00 0.28 0.21 61 1012.0
20260507205008 60 162 2.0 3.0 0.00 0.28 0.21 60 1012.0
20260507204507 60 248 1.0 3.0 0.00 0.28 0.21 60 1012.0
20260507204007 60 231 2.0 3.0 0.00 0.28 0.21 60 1012.0
20260507203508 60 275 1.0 2.0 0.00 0.28 0.21 60 1012.0
20260507203006 60 348 2.0 3.0 0.00 0.28 0.21 60 1012.0
20260507201506 60 252 2.0 3.0 0.00 0.28 0.21 58 1012.0
20260507201006 60 221 2.0 3.0 0.00 0.29 0.21 59 1012.0
20260507200008 60 180 1.0 2.0 0.00 0.29 0.21 60 1012.0
20260507195507 60 242 2.0 3.0 0.00 0.29 0.21 61 1012.0
20260507195008 60 219 3.0 6.0 0.00 0.29 0.21 63 1012.0
20260507194508 59 211 2.0 3.0 0.00 0.29 0.21 64 1012.0
20260507194008 59 267 3.0 6.0 0.00 0.30 0.21 67 1012.0
20260507193507 59 243 3.0 5.0 0.00 0.30 0.21 68 1012.0
20260507192508 58 227 2.0 5.0 0.00 0.31 0.21 72 1012.0
20260507192008 58 252 3.0 5.0 0.00 0.31 0.21 74 1012.0
20260507191506 58 232 2.0 3.0 0.00 0.31 0.21 74 1012.0
20260507191007 58 237 2.0 5.0 0.00 0.31 0.21 74 1012.0
20260507190509 58 242 3.0 5.0 0.00 0.32 0.21 74 1012.0
20260507190006 58 228 3.0 5.0 0.00 0.32 0.21 73 1012.0
20260507185507 59 237 3.0 5.0 0.00 0.33 0.21 73 1012.0
20260507185007 59 243 3.0 5.0 0.00 0.34 0.21 72 1012.0
20260507184507 59 257 3.0 5.0 0.00 0.34 0.21 72 1012.0
20260507184007 60 232 3.0 5.0 0.00 0.34 0.21 72 1012.0
20260507183507 60 246 2.0 3.0 0.00 0.34 0.21 72 1012.0
20260507183006 60 248 2.0 2.0 0.00 0.34 0.21 72 1012.0
20260507182508 60 225 1.0 2.0 0.00 0.34 0.21 72 1012.0
20260507181506 61 232 2.0 3.0 0.00 0.34 0.21 72 1012.0
20260507181006 61 229 2.0 3.0 0.00 0.34 0.21 71 1012.0
20260507180508 62 238 2.0 3.0 0.00 0.34 0.21 71 1012.0
20260507180006 62 248 2.0 3.0 0.00 0.34 0.21 70 1012.0
20260507175507 62 0 0.0 2.0 0.00 0.34 0.21 69 1012.0
20260507175009 63 291 2.0 2.0 0.00 0.34 0.21 68 1012.0
20260507174506 63 310 0.0 1.0 0.00 0.34 0.21 69 1012.0
20260507174008 63 248 0.0 1.0 0.00 0.34 0.21 68 1012.0
20260507173509 64 248 1.0 2.0 0.00 0.34 0.21 67 1012.0
20260507173007 64 248 1.0 2.0 0.00 0.34 0.21 66 1012.0
20260507172506 64 312 0.0 2.0 0.00 0.34 0.21 65 1012.0
20260507172007 64 0 0.0 1.0 0.00 0.34 0.21 64 1012.0
20260507171507 64 0 0.0 1.0 0.00 0.34 0.21 64 1012.0
20260507171007 65 0 0.0 1.0 0.00 0.34 0.21 63 1012.0
20260507165508 65 0 0.0 1.0 0.00 0.34 0.21 61 1012.0
20260507164506 66 180 1.0 2.0 0.00 0.34 0.21 60 1012.0
20260507164008 66 180 0.0 2.0 0.00 0.34 0.21 59 1012.0
20260507163509 66 175 0.0 2.0 0.00 0.34 0.21 59 1012.0
20260507163006 66 202 1.0 2.0 0.00 0.34 0.21 59 1012.0
20260507162506 66 224 1.0 2.0 0.00 0.34 0.21 60 1012.0
20260507161508 65 343 2.0 3.0 0.00 0.34 0.21 60 1012.0
20260507161008 65 148 0.0 3.0 0.00 0.34 0.21 61 1012.0
20260507160506 65 149 1.0 3.0 0.00 0.34 0.21 61 1012.0
20260507160006 65 182 2.0 3.0 0.00 0.34 0.21 61 1012.0
20260507155508 65 180 1.0 2.0 0.00 0.34 0.21 61 1012.0
20260507155007 66 180 1.0 3.0 0.00 0.34 0.21 61 1012.0
20260507154507 66 186 2.0 3.0 0.00 0.34 0.21 61 1012.0
20260507154009 66 188 2.0 2.0 0.00 0.34 0.21 61 1012.0
20260507153508 66 159 1.0 2.0 0.00 0.34 0.21 61 1012.0
20260507153006 66 202 0.0 2.0 0.00 0.34 0.21 61 1012.0
20260507152506 66 243 2.0 3.0 0.00 0.34 0.21 61 1012.0
20260507152010 66 158 2.0 2.0 0.00 0.34 0.21 62 1012.0
20260507151507 66 185 2.0 5.0 0.00 0.34 0.21 63 1012.0
20260507150506 66 138 2.0 5.0 0.00 0.34 0.21 64 1013.0
20260507150008 66 90 2.0 3.0 0.00 0.34 0.21 64 1013.0
20260507145505 66 143 2.0 3.0 0.00 0.34 0.21 65 1013.0
20260507145007 66 182 0.0 1.0 0.00 0.34 0.21 65 1013.0
20260507144007 66 189 1.0 2.0 0.00 0.34 0.21 64 1013.0
20260507143006 66 182 2.0 3.0 0.00 0.34 0.21 64 1013.0
20260507142507 66 180 0.0 5.0 0.00 0.34 0.21 64 1013.0
20260507142006 66 135 2.0 3.0 0.00 0.34 0.21 63 1013.0
20260507141008 66 188 2.0 5.0 0.00 0.34 0.21 60 1013.0
20260507140505 67 176 3.0 5.0 0.00 0.34 0.21 59 1013.0
20260507140006 68 160 2.0 3.0 0.00 0.34 0.21 57 1013.0
20260507135507 68 226 3.0 6.0 0.00 0.34 0.21 55 1012.0
20260507134006 70 120 3.0 5.0 0.00 0.34 0.21 55 1013.0
20260507133507 69 57 2.0 6.0 0.00 0.34 0.21 56 1013.0
20260507133006 69 124 2.0 6.0 0.00 0.34 0.21 56 1013.0
20260507132008 68 143 2.0 3.0 0.00 0.34 0.21 55 1014.0
20260507131505 68 90 3.0 5.0 0.00 0.34 0.21 56 1014.0
20260507131006 68 158 1.0 2.0 0.00 0.34 0.21 57 1014.0
20260507130506 67 238 1.0 2.0 0.00 0.34 0.21 57 1014.0
20260507130007 68 140 2.0 5.0 0.00 0.34 0.21 57 1014.0
20260507125505 68 195 1.0 3.0 0.00 0.34 0.21 57 1014.0
20260507124505 67 205 2.0 7.0 0.00 0.34 0.21 60 1014.0
20260507123506 67 157 2.0 3.0 0.00 0.34 0.21 60 1014.0
20260507122505 66 270 2.0 3.0 0.00 0.34 0.21 62 1015.0
20260507122007 66 90 2.0 2.0 0.00 0.34 0.21 62 1015.0
20260507121505 66 90 2.0 3.0 0.00 0.34 0.21 63 1015.0
20260507121006 66 124 2.0 3.0 0.00 0.34 0.21 62 1015.0
20260507120506 67 90 2.0 3.0 0.00 0.34 0.21 62 1015.0
20260507120008 67 90 3.0 6.0 0.00 0.34 0.21 63 1015.0
20260507115505 67 90 3.0 5.0 0.00 0.34 0.21 63 1015.0
20260507115006 67 141 2.0 5.0 0.00 0.34 0.21 64 1015.0
20260507114505 66 83 2.0 5.0 0.00 0.34 0.21 65 1015.0
20260507114008 66 90 2.0 3.0 0.00 0.34 0.21 66 1015.0
20260507113006 65 77 3.0 6.0 0.00 0.34 0.21 67 1015.0
20260507112505 65 96 3.0 6.0 0.00 0.34 0.21 67 1015.0
20260507111506 65 90 2.0 2.0 0.00 0.34 0.21 68 1015.0
20260507110007 65 73 3.0 6.0 0.00 0.34 0.21 70 1015.0
20260507105006 65 119 2.0 6.0 0.00 0.34 0.21 71 1015.0
20260507104007 64 90 3.0 5.0 0.00 0.34 0.21 73 1015.0
20260507103505 64 90 2.0 6.0 0.00 0.34 0.21 73 1015.0
20260507102506 64 90 2.0 6.0 0.00 0.34 0.21 74 1015.0
20260507102007 64 86 2.0 3.0 0.00 0.34 0.21 74 1015.0
20260507101507 64 90 3.0 5.0 0.00 0.34 0.21 75 1015.0
20260507101007 64 155 2.0 3.0 0.00 0.34 0.21 76 1015.0
20260507100006 63 269 1.0 5.0 0.00 0.34 0.21 76 1015.0
20260507095006 64 131 3.0 6.0 0.00 0.34 0.21 80 1015.0
20260507094005 63 167 2.0 6.0 0.00 0.34 0.21 81 1014.0
20260507093505 63 116 2.0 6.0 0.00 0.34 0.21 81 1014.0
20260507093006 62 187 3.0 5.0 0.00 0.34 0.21 83 1014.0
20260507092507 63 130 3.0 5.0 0.00 0.34 0.21 85 1015.0
20260507092006 63 152 3.0 3.0 0.00 0.34 0.21 87 1015.0
20260507091006 62 116 2.0 6.0 0.00 0.34 0.21 91 1015.0
20260507090507 62 66 2.0 5.0 0.00 0.34 0.21 92 1015.0
20260507090006 62 103 3.0 5.0 0.00 0.34 0.21 96 1015.0
20260507085506 61 108 2.0 5.0 0.00 0.34 0.21 97 1014.0
20260507085006 61 103 1.0 5.0 0.00 0.34 0.21 97 1014.0
20260507084006 60 97 3.0 5.0 0.00 0.34 0.21 97 1015.0
20260507083505 59 90 2.0 5.0 0.00 0.34 0.21 97 1015.0
20260507083006 59 90 3.0 5.0 0.00 0.34 0.21 97 1015.0
20260507082507 59 90 3.0 5.0 0.00 0.34 0.21 97 1015.0
20260507082006 58 90 3.0 5.0 0.00 0.34 0.21 97 1015.0
20260507081506 58 102 1.0 2.0 0.00 0.34 0.21 97 1015.0
20260507081007 57 158 2.0 2.0 0.00 0.34 0.21 97 1015.0
20260507080507 56 270 0.0 3.0 0.00 0.34 0.21 97 1015.0
20260507080005 56 282 0.0 3.0 0.00 0.34 0.21 97 1015.0
20260507075006 56 181 0.0 2.0 0.00 0.34 0.21 97 1015.0
20260507074508 56 45 0.0 1.0 0.00 0.34 0.21 97 1015.0
20260507071035 54 248 0.0 2.0 0.00 0.34 0.21 97 1015.0
20260507070033 54 112 1.0 3.0 0.00 0.34 0.21 97 1015.0
20260507065532 55 90 2.0 3.0 0.00 0.34 0.21 97 1015.0
20260507065034 54 90 2.0 2.0 0.00 0.34 0.21 97 1015.0
20260507064033 54 90 0.0 0.0 0.00 0.34 0.21 97 1015.0
20260507063035 54 90 0.0 0.0 0.00 0.34 0.21 97 1015.0
20260507062532 54 90 0.0 0.0 0.00 0.34 0.21 97 1015.0
20260507062033 54 90 0.0 1.0 0.00 0.34 0.21 97 1015.0
20260507061533 54 90 1.0 2.0 0.00 0.34 0.21 97 1015.0
20260507061035 54 97 1.0 3.0 0.00 0.34 0.21 97 1015.0
20260507060533 54 90 3.0 3.0 0.00 0.34 0.21 97 1015.0
20260507060033 54 248 0.0 0.0 0.00 0.34 0.21 97 1015.0
20260507055534 54 248 0.0 1.0 0.00 0.34 0.21 97 1015.0
20260507055035 53 253 1.0 2.0 0.00 0.35 0.21 97 1015.0
20260507054532 54 266 0.0 2.0 0.00 0.35 0.21 97 1015.0
20260507054033 54 135 1.0 2.0 0.00 0.35 0.21 97 1015.0
20260507053533 53 135 1.0 2.0 0.00 0.35 0.21 97 1015.0
20260507053035 53 270 0.0 2.0 0.00 0.35 0.21 97 1015.0
20260507052532 53 310 2.0 2.0 0.00 0.35 0.21 97 1015.0
20260507052033 53 90 0.0 2.0 0.00 0.35 0.21 97 1015.0
20260507051532 53 90 2.0 3.0 0.00 0.35 0.21 97 1015.0
20260507050532 53 87 1.0 2.0 0.00 0.35 0.21 97 1015.0
20260507045532 53 84 1.0 2.0 0.00 0.35 0.21 97 1015.0
20260507044532 53 90 1.0 2.0 0.00 0.36 0.21 97 1015.0
20260507044033 53 90 1.0 2.0 0.00 0.37 0.21 97 1014.0
20260507043533 53 66 2.0 2.0 0.00 0.37 0.21 97 1014.0
20260507043034 53 90 2.0 3.0 0.00 0.38 0.21 97 1014.0
20260507042533 53 90 2.0 3.0 0.00 0.38 0.21 97 1015.0
20260507042033 53 68 0.0 1.0 0.00 0.38 0.21 97 1015.0
20260507041034 53 45 0.0 0.0 0.00 0.38 0.21 97 1014.0
20260507040533 53 45 0.0 0.0 0.00 0.38 0.21 97 1014.0
20260507040033 53 45 1.0 1.0 0.00 0.38 0.21 97 1014.0
20260507035034 53 90 0.0 2.0 0.00 0.39 0.21 97 1014.0
20260507034533 53 90 0.0 2.0 0.00 0.39 0.21 97 1014.0
20260507034033 53 89 2.0 3.0 0.00 0.39 0.21 97 1014.0
20260507033532 53 90 2.0 3.0 0.00 0.40 0.21 97 1014.0
20260507033034 53 90 2.0 2.0 0.00 0.40 0.21 96 1014.0
20260507032531 53 90 1.0 2.0 0.00 0.40 0.21 96 1014.0
20260507032032 53 90 1.0 2.0 0.00 0.40 0.21 96 1014.0
20260507031532 53 68 1.0 2.0 0.00 0.40 0.21 96 1014.0
20260507031034 53 68 0.0 2.0 0.00 0.40 0.21 96 1014.0
20260507030532 53 270 1.0 2.0 0.00 0.40 0.21 96 1014.0
20260507030033 53 0 0.0 0.0 0.00 0.40 0.21 96 1014.0
20260507025532 53 0 0.0 2.0 0.00 0.40 0.21 96 1014.0
20260507025034 53 0 0.0 2.0 0.00 0.40 0.21 96 1014.0
20260507024533 53 0 0.0 0.0 0.01 0.40 0.21 96 1014.0
20260507024033 53 0 0.0 1.0 0.02 0.40 0.21 96 1014.0
20260507023532 53 22 0.0 1.0 0.02 0.40 0.21 96 1014.0
20260507023035 53 225 0.0 1.0 0.03 0.40 0.21 96 1014.0
20260507022532 53 116 0.0 1.0 0.04 0.40 0.21 96 1014.0
20260507021035 53 248 0.0 0.0 0.04 0.40 0.21 95 1014.0
20260507020533 53 270 0.0 0.0 0.05 0.40 0.21 95 1014.0
20260507015532 53 270 0.0 0.0 0.05 0.40 0.21 95 1014.0
20260507014533 53 270 0.0 0.0 0.04 0.39 0.21 95 1014.0
20260507014033 53 270 0.0 0.0 0.03 0.38 0.20 95 1014.0
20260507013532 53 270 1.0 2.0 0.02 0.38 0.19 95 1014.0
20260507013034 53 270 0.0 1.0 0.01 0.38 0.18 95 1014.0
20260507012531 53 248 1.0 1.0 0.02 0.39 0.18 95 1014.0
20260507012033 53 248 0.0 2.0 0.02 0.40 0.18 95 1014.0
20260507011532 53 270 1.0 2.0 0.02 0.41 0.18 95 1014.0
20260507011034 53 0 1.0 6.0 0.04 0.41 0.18 95 1014.0
20260507010532 53 293 1.0 6.0 0.05 0.41 0.17 95 1014.0
20260507005033 53 284 3.0 5.0 0.10 0.41 0.17 95 1014.0
20260507004531 53 69 1.0 3.0 0.11 0.41 0.17 95 1014.0
20260507004032 53 28 0.0 1.0 0.12 0.41 0.17 95 1014.0
20260507003532 53 0 0.0 3.0 0.12 0.41 0.17 95 1014.0
20260507002533 53 270 1.0 3.0 0.13 0.41 0.17 95 1014.0
20260507002033 53 272 1.0 2.0 0.13 0.41 0.16 95 1014.0
20260507001531 53 281 1.0 2.0 0.13 0.40 0.15 95 1014.0
20260507001034 53 66 1.0 3.0 0.12 0.39 0.14 96 1014.0
20260507000532 54 306 2.0 3.0 0.11 0.37 0.12 96 1014.0
20260507000032 54 240 1.0 3.0 0.08 0.34 0.10 96 1014.0
20260506235532 54 98 1.0 3.0 0.07 0.33 0.08 96 1015.0
20260506235034 54 338 2.0 2.0 0.06 0.32 0.08 96 1015.0
20260506234532 54 311 1.0 2.0 0.05 0.31 0.06 96 1015.0
20260506234034 54 0 1.0 3.0 0.04 0.30 0.05 96 1014.0
20260506233531 54 214 1.0 3.0 0.03 0.29 0.04 96 1014.0
20260506233035 54 327 1.0 5.0 0.02 0.28 0.04 96 1014.0
20260506232532 54 271 1.0 2.0 0.03 0.28 0.04 96 1014.0
20260506232032 54 344 1.0 5.0 0.02 0.28 0.03 96 1014.0
20260506230032 54 345 0.0 1.0 0.02 0.26 0.01 96 1014.0
20260506225540 54 0 0.0 1.0 0.02 0.26 0.01 96 1014.0
20260506225034 54 338 1.0 3.0 0.02 0.26 0.01 96 1014.0
20260506224532 54 257 1.0 2.0 0.02 0.26 0.01 96 1014.0
20260506224032 54 38 2.0 3.0 0.03 0.26 0.01 96 1015.0
20260506223531 54 0 1.0 2.0 0.04 0.26 0.01 96 1015.0
20260506223033 54 324 2.0 3.0 0.04 0.26 0.01 96 1015.0
20260506222032 54 312 2.0 5.0 0.03 0.25 0.01 96 1015.0
20260506221033 54 270 1.0 1.0 0.03 0.25 0.00 95 1015.0
20260506220531 54 270 1.0 2.0 0.04 0.25 0.00 95 1015.0